Weather reports worldwide

Advertisment
Bournemouth Airport, United Kingdom (3862): temperature & dewpoint: 11.08.2017 08:00:00 - 17.08.2017 08:00:00 (BST)Bournemouth Airport, United Kingdom (3862): temperature -20cm & temperature -100cm: 11.08.2017 08:00:00 - 17.08.2017 08:00:00 (BST)Bournemouth Airport, United Kingdom (3862): wind speed: 11.08.2017 08:00:00 - 17.08.2017 08:00:00 (BST)Bournemouth Airport, United Kingdom (3862): wind direction: 11.08.2017 08:00:00 - 17.08.2017 08:00:00 (BST)Bournemouth Airport, United Kingdom (3862): reduced air pressure: 11.08.2017 08:00:00 - 17.08.2017 08:00:00 (BST)Bournemouth Airport, United Kingdom (3862): visibility: 11.08.2017 08:00:00 - 17.08.2017 08:00:00 (BST)Bournemouth Airport, United Kingdom (3862): sunshine duration: 11.08.2017 08:00:00 - 17.08.2017 08:00:00 (BST)Bournemouth Airport, United Kingdom (3862): precipitation: 11.08.2017 08:00:00 - 17.08.2017 08:00:00 (BST)
Date & Time tt [°C] td [°C] tt -20cm [°C] tt -100cm [°C] ff [km/h] ff [kn] dd ppp [hPa] vv [km] sd [min] rr [mm]
17.08.2017 08:00:00 17,6 17,1 - - 15 8 WSW 1010,6 10 0 0,0
17.08.2017 07:00:00 17,6 17,2 - - 13 7 SW 1010,2 6 0 0,0
17.08.2017 06:00:00 17,4 17,1 - - 13 7 SW 1010,3 4,0 0 0,0
17.08.2017 05:00:00 17,4 17,0 - - 16 9 SW 1010,5 8 0 0,0
17.08.2017 04:00:00 17,3 16,6 - - 18 10 SW 1011,3 21 0 0,0
17.08.2017 03:00:00 17,1 16,5 - - 24 13 SSW 1011,6 14 0 0,8
17.08.2017 02:00:00 16,6 16,0 - - 22 12 SSW 1012,3 2,9 0 1,6
17.08.2017 01:00:00 16,3 15,8 - - 21 11 S 1013,3 3,2 - 0,6
17.08.2017 00:00:00 15,9 15,1 - - 15 8 SSW 1014,3 4,0 0 0,6
16.08.2017 23:00:00 17,3 14,9 - - 15 8 S 1014,8 10 0 0,2
16.08.2017 22:00:00 17,5 13,8 - - 15 8 SSE 1015,4 10 0 0,0
16.08.2017 21:00:00 17,2 14,5 - - 16 9 SSE 1016,2 10 0 0,0
16.08.2017 20:00:00 17,6 12,0 - - 13 7 S 1016,7 10 18 0,0
16.08.2017 19:00:00 17,6 12,8 - - 15 8 S 1017,3 10 6 0,0
16.08.2017 18:00:00 18,8 13,4 - - 21 11 S 1017,9 10 54 0,0
16.08.2017 17:00:00 18,9 11,9 - - 16 9 S 1018,3 10 54 0,0
16.08.2017 16:00:00 19,0 12,3 - - 18 10 S 1018,6 10 30 0,0
16.08.2017 15:00:00 19,4 13,8 - - 21 11 S 1019,1 10 24 0,0
16.08.2017 14:00:00 19,7 12,7 - - 16 9 SW 1019,7 10 42 0,0
16.08.2017 13:00:00 19,0 13,0 - - 21 11 SSW 1019,6 10 60 0,0
16.08.2017 12:00:00 18,8 13,3 - - 16 9 S 1019,6 10 48 0,0
16.08.2017 11:00:00 17,6 11,9 - - 15 8 SW 1020,4 10 0 0,0
16.08.2017 10:00:00 16,1 13,9 18,0 16,7 2 1 - 1020,4 10 0 0,0
16.08.2017 09:00:00 13,4 12,8 - - 2 1 - 1020,5 10 0 0,0
16.08.2017 08:00:00 11,4 11,1 - - 0 0 N 1020,3 10 0 0,0
16.08.2017 07:00:00 10,4 10,0 - - 0 0 N 1020,0 10 0 0,0
16.08.2017 06:00:00 9,2 8,9 - - 5 3 ENE 1019,9 13 0 0,0
16.08.2017 05:00:00 8,8 8,4 - - 2 1 NW 1020,0 9 0 0,0
16.08.2017 04:00:00 9,3 9,0 - - 2 1 WNW 1020,0 11 0 0,0
16.08.2017 03:00:00 9,3 8,4 - - 2 1 NE 1020,0 18 0 0,0
16.08.2017 02:00:00 10,8 10,2 - - 0 0 N 1020,1 20 0 0,0
16.08.2017 01:00:00 11,8 11,2 - - 4 2 NE 1020,2 16 - 0,0
16.08.2017 00:00:00 13,6 12,8 - - 4 2 NW 1020,0 15 0 0,0
15.08.2017 23:00:00 15,0 13,4 - - 8 4 S 1019,7 10 0 0,0
15.08.2017 22:00:00 14,9 12,6 - - 8 4 WSW 1019,4 10 0 0,0
15.08.2017 21:00:00 15,5 12,5 - - 11 6 W 1019,0 10 0 0,0
15.08.2017 20:00:00 17,7 12,8 - - 15 8 W 1018,3 10 54 0,0
15.08.2017 19:00:00 19,3 13,6 - - 15 8 SW 1017,7 10 36 0,0
15.08.2017 18:00:00 19,1 13,3 - - 21 11 WSW 1017,3 10 48 0,0
15.08.2017 17:00:00 19,8 13,0 - - 18 10 W 1017,2 10 18 0,0
15.08.2017 16:00:00 20,4 12,3 - - 18 10 WNW 1016,9 10 12 0,0
15.08.2017 15:00:00 21,5 10,5 - - 21 11 W 1016,5 10 54 0,0
15.08.2017 14:00:00 22,5 12,1 - - 16 9 W 1016,3 10 60 0,0
15.08.2017 13:00:00 20,8 12,4 - - 15 8 WNW 1016,0 10 54 0,0
15.08.2017 12:00:00 19,6 13,3 - - 11 6 NW 1015,8 10 30 0,0
15.08.2017 11:00:00 18,5 13,2 - - 13 7 W 1015,6 10 54 0,0
15.08.2017 10:00:00 17,5 13,1 17,7 16,7 15 8 NW 1015,3 10 30 0,0
15.08.2017 09:00:00 16,7 14,5 - - 11 6 WNW 1014,7 10 12 0,0
15.08.2017 08:00:00 15,8 14,4 - - 9 5 WNW 1014,1 10 0 0,0
15.08.2017 07:00:00 14,5 14,4 - - 5 3 NW 1013,6 2,0 0 0,0
15.08.2017 06:00:00 13,9 13,7 - - 4 2 NW 1013,3 0,8 0 0,0
15.08.2017 05:00:00 13,5 13,2 - - 8 4 NNW 1013,1 0,3 0 0,2
15.08.2017 04:00:00 14,8 14,5 - - 5 3 S 1013,3 1,9 0 0,0
15.08.2017 03:00:00 14,7 14,3 - - 4 2 N 1013,3 3,0 0 0,8
15.08.2017 02:00:00 14,5 14,1 - - 5 3 NW 1013,8 4,8 0 0,0
15.08.2017 01:00:00 14,2 13,3 - - 8 4 NNE 1013,7 5 - 0,0
15.08.2017 00:00:00 14,8 14,0 - - 5 3 NNW 1014,4 8 0 0,0
14.08.2017 23:00:00 15,5 14,2 - - 4 2 NE 1014,3 10 0 0,0
14.08.2017 22:00:00 15,6 14,1 - - 4 2 E 1014,5 10 0 0,0
14.08.2017 21:00:00 17,1 14,8 - - 5 3 SE 1014,5 10 6 0,0
14.08.2017 20:00:00 18,2 14,7 - - 13 7 SSE 1014,3 10 18 0,0
14.08.2017 19:00:00 18,4 14,5 - - 9 5 S 1014,8 10 0 0,0
14.08.2017 18:00:00 19,1 14,4 - - 9 5 SSE 1014,9 10 0 0,0
14.08.2017 17:00:00 18,8 14,9 - - 9 5 SSE 1015,3 10 0 0,0
14.08.2017 16:00:00 19,2 14,2 - - 15 8 S 1016,1 10 0 0,0
14.08.2017 15:00:00 19,6 14,6 - - 15 8 S 1016,5 10 0 0,0
14.08.2017 14:00:00 19,6 14,0 - - 15 8 S 1016,5 10 0 0,0
14.08.2017 13:00:00 19,7 14,2 - - 13 7 S 1016,7 10 6 0,0
14.08.2017 12:00:00 19,4 14,2 - - 16 9 S 1017,1 10 18 0,0
14.08.2017 11:00:00 18,9 14,4 - - 9 5 SE 1017,4 10 18 0,0
14.08.2017 10:00:00 18,2 14,1 17,7 16,5 11 6 S 1017,9 10 18 0,0
14.08.2017 09:00:00 14,6 13,8 - - 4 2 E 1018,4 16 0 0,0
14.08.2017 08:00:00 11,1 10,8 - - 0 0 N 1018,8 8 18 0,0
14.08.2017 07:00:00 8,8 8,5 - - 0 0 N 1018,5 6 0 0,0
14.08.2017 06:00:00 7,7 7,3 - - 4 2 WNW 1018,4 6 0 0,0
14.08.2017 05:00:00 8,0 7,6 - - 2 1 NNW 1018,8 12 0 0,0
14.08.2017 04:00:00 7,7 7,1 - - 5 3 ENE 1018,8 17 0 0,0
14.08.2017 03:00:00 8,2 7,5 - - 2 1 N 1019,4 16 0 0,0
14.08.2017 02:00:00 9,1 8,1 - - 2 1 N 1019,8 13 0 0,0
14.08.2017 01:00:00 9,6 8,7 - - 2 1 NE 1020,2 16 - 0,0
14.08.2017 00:00:00 9,8 8,6 - - 0 0 N 1020,6 10 0 0,0
13.08.2017 23:00:00 11,4 10,0 - - 2 1 ENE 1021,0 18 0 0,0
13.08.2017 22:00:00 12,2 9,3 - - 4 2 S 1021,1 19 0 0,0
13.08.2017 21:00:00 15,5 12,0 - - 2 1 S 1021,0 10 0 0,0
13.08.2017 20:00:00 17,0 12,0 - - 9 5 SSE 1021,0 10 54 0,0
13.08.2017 19:00:00 18,4 11,7 - - 9 5 S 1020,9 10 60 0,0
13.08.2017 18:00:00 18,4 11,6 - - 9 5 S 1021,0 10 60 0,0
13.08.2017 17:00:00 19,2 11,4 - - 13 7 S 1021,3 10 60 0,0
13.08.2017 16:00:00 19,4 11,0 - - 16 9 S 1021,5 10 60 0,0
13.08.2017 15:00:00 19,3 11,2 - - 22 12 S 1021,8 10 60 0,0
13.08.2017 14:00:00 19,4 9,8 - - 13 7 S 1021,9 10 24 0,0
13.08.2017 13:00:00 18,3 9,7 - - 16 9 S 1022,0 10 30 0,0
13.08.2017 12:00:00 19,3 11,2 - - 16 9 S 1022,1 10 54 0,0
13.08.2017 11:00:00 18,6 10,1 - - 2 1 - 1022,2 10 60 0,0
13.08.2017 10:00:00 18,0 9,2 17,7 16,5 5 3 - 1022,3 10 60 0,0
13.08.2017 09:00:00 16,4 11,0 - - 8 4 E 1021,9 10 60 0,0
13.08.2017 08:00:00 13,5 12,1 - - 2 1 - 1021,6 10 12 0,0
13.08.2017 07:00:00 11,5 10,8 - - 0 0 N 1021,2 10 0 0,0
13.08.2017 06:00:00 11,1 10,5 - - 4 2 WNW 1021,0 15 0 0,0
13.08.2017 05:00:00 11,0 10,3 - - 4 2 NNW 1020,9 15 0 0,0
13.08.2017 04:00:00 11,4 10,8 - - 4 2 WNW 1020,8 18 0 0,0
13.08.2017 03:00:00 12,1 10,8 - - 5 3 W 1020,6 17 0 0,0
13.08.2017 02:00:00 12,8 11,2 - - 8 4 NW 1020,5 19 0 0,0
13.08.2017 01:00:00 12,1 10,9 - - 9 5 NW 1020,5 21 - 0,0
13.08.2017 00:00:00 12,5 10,7 - - 8 4 WNW 1020,4 21 0 0,0
12.08.2017 23:00:00 13,9 11,3 - - 13 7 WNW 1020,3 20 0 0,0
12.08.2017 22:00:00 14,9 11,7 - - 13 7 NW 1019,9 20 0 0,0
12.08.2017 21:00:00 16,1 12,2 - - 9 5 WNW 1019,4 10 24 0,0
12.08.2017 20:00:00 17,9 11,0 - - 9 5 NW 1018,8 10 60 0,0
12.08.2017 19:00:00 19,4 10,1 - - 15 8 WNW 1018,4 10 60 0,0
12.08.2017 18:00:00 20,0 10,0 - - 15 8 WNW 1018,1 10 54 0,0
12.08.2017 17:00:00 19,5 10,3 - - 21 11 W 1018,0 10 18 0,0
12.08.2017 16:00:00 19,6 10,0 - - 28 15 NW 1017,8 10 24 0,0
12.08.2017 15:00:00 19,4 9,9 - - 21 11 WNW 1017,8 10 36 0,0
12.08.2017 14:00:00 18,5 11,6 - - 18 10 WNW 1017,7 10 0 0,0
12.08.2017 13:00:00 18,8 10,8 - - 24 13 W 1017,7 10 30 0,0
12.08.2017 12:00:00 19,4 11,3 - - 18 10 WNW 1017,3 10 42 0,0
12.08.2017 11:00:00 18,1 12,8 - - 22 12 NW 1017,0 26 18 0,0
12.08.2017 10:00:00 18,3 12,9 17,4 16,5 11 6 WNW 1016,4 10 36 0,0
12.08.2017 09:00:00 18,1 14,3 - - 15 8 WNW 1016,3 10 18 0,0
12.08.2017 08:00:00 17,4 14,7 - - 5 3 W 1015,9 10 0 0,0
12.08.2017 07:00:00 16,8 15,5 - - 4 2 W 1015,4 10 0 0,0
12.08.2017 06:00:00 16,4 15,6 - - 8 4 W 1015,1 19 0 0,0
12.08.2017 05:00:00 16,9 15,6 - - 13 7 WSW 1014,9 19 0 0,0
12.08.2017 04:00:00 16,8 15,6 - - 13 7 W 1015,2 27 0 0,0
12.08.2017 03:00:00 16,9 15,7 - - 13 7 W 1015,6 25 0 0,0
12.08.2017 02:00:00 16,8 15,7 - - 16 9 WSW 1015,8 23 0 0,0
12.08.2017 01:00:00 16,7 15,6 - - 18 10 W 1016,1 23 - 0,0
12.08.2017 00:00:00 16,6 15,7 - - 18 10 WSW 1016,8 19 0 0,0
11.08.2017 23:00:00 16,6 15,6 - - 22 12 WSW 1017,3 10 0 0,0
11.08.2017 22:00:00 16,7 15,3 - - 22 12 WSW 1017,7 10 0 0,0
11.08.2017 21:00:00 16,3 15,2 - - 22 12 WSW 1018,1 6 0 0,0
11.08.2017 20:00:00 16,8 14,5 - - 22 12 WSW 1018,3 10 0 0,0
11.08.2017 19:00:00 17,0 14,3 - - 21 11 WSW 1018,3 10 0 0,0
11.08.2017 18:00:00 17,2 14,0 - - 21 11 WSW 1018,9 10 0 0,0
11.08.2017 17:00:00 17,1 13,8 - - 21 11 WSW 1019,4 10 0 0,0
11.08.2017 16:00:00 17,3 13,4 - - 18 10 SW 1019,7 10 0 0,0
11.08.2017 15:00:00 17,7 12,5 - - 18 10 WSW 1019,7 10 0 0,0
11.08.2017 14:00:00 18,6 12,2 - - 21 11 WSW 1019,7 30 18 0,0
11.08.2017 13:00:00 18,5 11,1 - - 9 5 W 1020,2 10 6 0,0
11.08.2017 12:00:00 18,8 9,6 - - 15 8 W 1020,3 10 54 0,0
11.08.2017 11:00:00 17,5 11,4 - - 11 6 WSW 1020,6 10 54 0,0
11.08.2017 10:00:00 16,4 11,4 17,2 16,7 9 5 W 1020,7 10 60 0,0
11.08.2017 09:00:00 14,4 11,3 - - 5 3 - 1021,1 10 60 0,0
11.08.2017 08:00:00 12,5 11,2 - - 4 2 WNW 1021,3 10 60 0,0

tt = temperature
td = dewpoint
tt -20cm = temperature -20cm
tt -100cm = temperature -100cm
ff = wind speed
dd = wind direction
ppp = reduced air pressure
vv = visibility
sd = sunshine duration
rr = precipitation

Next stations